Regional Weather Roundup
Issued by NWS

Home | Current Version | Previous Version | Graphics & Text | Print | Product List | Glossary On
Versions: 1 2 3 4 5 6 7 8 9 10 11 12 13 14 15 16 17 18 19 20 21 22 23 24 25 26 27 28 29 30 31 32 33 34 35 36 37 38 39 40 41 42 43 44 45 46 47 48 49 50
000
ASUS45 KBOI 251510
RWRID
WEATHER ROUNDUP FOR IDAHO
NATIONAL WEATHER SERVICE BOISE ID
800 AM MST SUN JAN 25 2015

NOTE: "FAIR" INDICATES FEW OR NO CLOUDS BELOW 12000 FEET
WITH NO SIGNIFICANT WEATHER AND/OR OBSTRUCTIONS TO VISIBILITY

IDZ012-014-251600-
SOUTHWEST IDAHO


CITY           SKY/WX    TMP DP  RH WIND       PRES   REMARKS
BOISE          MOCLDY    28  26  92 E3        30.46R FOG
CALDWELL       MOCLDY    28  21  74 CALM      30.49S
MOUNTAIN HOME  PTCLDY    28  26  90 E2        30.46R
$$

IDZ016-017-251600-
SOUTHCENTRAL IDAHO


CITY           SKY/WX    TMP DP  RH WIND       PRES   REMARKS
BURLEY         PTCLDY    29  26  89 N3        30.41F FOG
JEROME         CLEAR     28  25  88 NE10      30.42S WCI  19
TWIN FALLS     CLEAR     32  27  81 E3        30.41F HAZE
$$

IDZ019>023-251600-
SOUTHEAST IDAHO


CITY           SKY/WX    TMP DP  RH WIND       PRES   REMARKS
IDAHO FALLS    FOG       28  27  96 NE3       30.43F VSB 1
POCATELLO      CLOUDY    30  29  96 NE8       30.45R FOG     WCI  22
REXBURG        CLOUDY    26  26 100 CALM      30.43F FOG
$$

IDZ006-010-011-018-031-032-251600-
CENTRAL IDAHO MOUNTAINS


CITY           SKY/WX    TMP DP  RH WIND       PRES   REMARKS
MCCALL         FOG       33  32  96 CALM      30.39R VSB 3/4
HAILEY         PTCLDY    19  19 100 NW8       30.42S WCI   9
STANLEY          N/A     25  21  85 SE6       30.44R WCI  18
SALMON         CLEAR     21  19  93 SE6       30.40R WCI  14
CHALLIS        CLEAR     24  22  91 CALM      30.39R
$$

IDZ002-004-006-007-026-251600-
NORTHERN IDAHO


CITY           SKY/WX    TMP DP  RH WIND       PRES   REMARKS
LEWISTON       CLOUDY    45  37  73 CALM      30.27S
LOWELL           N/A     36  35  96 N3        30.38S
COEUR D`ALENE  CLOUDY    41  37  87 S8        30.22S
MULLAN PASS    CLOUDY    36  35  96 W9G17     30.22S WCI  29
$$


USA.gov is the U.S. government's official web portal to all federal, state and local government web resources and services.